Location: Maccacari
(45.1333°N, 11.1333°E)
Time: 19:45:15
(UTC+00:00)

Tiros 1 despin weight - Pass Details

Date: 24 January 2021
Orbit: 593 x 642 km, 48.2° (Epoch: 26 February)

Event Time Altitude Azimuth Distance (km) Brightness Sun altitude
Rises 13:32:28 0° 229° (SW) 2,890 ? 19.8°
Reaches altitude 10° 13:34:50 10° 224° (SW) 1,978 ? 19.6°
Maximum altitude 13:39:13 49° 149° (SSE) 787 ? 19.2°
Drops below altitude 10° 13:43:34 10° 75° (ENE) 1,956 ? 18.7°
Sets 13:45:54 0° 70° (ENE) 2,854 ? 18.5°
